| time (UTC) | temp F | wind direction | speed knots | gust knots | rain 1hr in | rain 24hr in | rain mn in | humidity % | barometer mb |
| 20260507105330 | 52 | 333 | 0.0 | 0.0 | 0.00 | 0.00 | 0.00 | 83 | 1021.0 |
| 20260507104819 | 52 | 333 | 0.0 | 0.0 | 0.00 | 0.00 | 0.00 | 83 | 1021.0 |
| 20260507104345 | 52 | 333 | 0.0 | 0.0 | 0.00 | 0.00 | 0.00 | 83 | 1021.0 |
| 20260507103847 | 52 | 327 | 0.0 | 0.0 | 0.00 | 0.00 | 0.00 | 84 | 1021.1 |
| 20260507103349 | 52 | 327 | 0.0 | 0.0 | 0.00 | 0.00 | 0.00 | 84 | 1021.1 |
| 20260507102838 | 52 | 356 | 0.0 | 0.0 | 0.00 | 0.00 | 0.00 | 83 | 1021.1 |
| 20260507102335 | 52 | 331 | 0.0 | 0.0 | 0.00 | 0.00 | 0.00 | 83 | 1021.1 |
| 20260507101841 | 52 | 324 | 0.0 | 0.0 | 0.00 | 0.00 | 0.00 | 83 | 1021.2 |
| 20260507101347 | 52 | 316 | 0.0 | 0.0 | 0.00 | 0.00 | 0.00 | 84 | 1021.2 |
| 20260507100853 | 52 | 316 | 0.0 | 0.0 | 0.00 | 0.00 | 0.00 | 84 | 1021.2 |
| 20260507100348 | 52 | 309 | 0.0 | 0.0 | 0.00 | 0.00 | 0.00 | 84 | 1021.2 |
| 20260507095315 | 52 | 342 | 0.0 | 0.0 | 0.00 | 0.00 | 0.00 | 83 | 1021.3 |
| 20260507094818 | 52 | 342 | 0.0 | 0.0 | 0.00 | 0.00 | 0.00 | 84 | 1021.3 |
| 20260507094323 | 52 | 342 | 0.0 | 0.0 | 0.00 | 0.00 | 0.00 | 84 | 1021.3 |
| 20260507093826 | 52 | 345 | 0.0 | 0.0 | 0.00 | 0.00 | 0.00 | 84 | 1021.3 |
| 20260507093331 | 52 | 345 | 0.0 | 0.0 | 0.00 | 0.00 | 0.00 | 85 | 1021.4 |
| 20260507092814 | 52 | 297 | 0.0 | 0.0 | 0.00 | 0.00 | 0.00 | 85 | 1021.5 |
| 20260507092313 | 52 | 332 | 0.0 | 0.0 | 0.00 | 0.00 | 0.00 | 86 | 1021.5 |
| 20260507091816 | 52 | 327 | 0.0 | 0.0 | 0.00 | 0.00 | 0.00 | 86 | 1021.6 |
| 20260507091322 | 52 | 327 | 0.0 | 0.0 | 0.00 | 0.00 | 0.00 | 86 | 1021.7 |
| 20260507090824 | 52 | 318 | 0.0 | 0.0 | 0.00 | 0.00 | 0.00 | 86 | 1021.7 |
| 20260507090331 | 52 | 311 | 0.0 | 0.0 | 0.00 | 0.00 | 0.00 | 86 | 1021.7 |
| 20260507085813 | 52 | 311 | 0.0 | 0.0 | 0.00 | 0.00 | 0.00 | 86 | 1021.7 |
| 20260507085313 | 52 | 311 | 0.0 | 0.0 | 0.00 | 0.00 | 0.00 | 86 | 1021.6 |
| 20260507084322 | 53 | 326 | 0.0 | 0.0 | 0.00 | 0.00 | 0.00 | 86 | 1021.6 |
| 20260507083824 | 53 | 326 | 0.0 | 0.0 | 0.00 | 0.00 | 0.00 | 86 | 1021.6 |
| 20260507083314 | 53 | 326 | 0.0 | 0.0 | 0.00 | 0.00 | 0.00 | 86 | 1021.6 |
| 20260507082817 | 53 | 326 | 0.0 | 0.0 | 0.00 | 0.00 | 0.00 | 86 | 1021.6 |
| 20260507082316 | 53 | 326 | 0.0 | 0.0 | 0.00 | 0.00 | 0.00 | 86 | 1021.7 |
| 20260507081826 | 53 | 313 | 0.0 | 0.0 | 0.00 | 0.00 | 0.00 | 86 | 1021.6 |
| 20260507081324 | 53 | 313 | 0.0 | 0.0 | 0.00 | 0.00 | 0.00 | 86 | 1021.6 |
| 20260507080328 | 53 | 15 | 0.0 | 0.0 | 0.00 | 0.00 | 0.00 | 85 | 1021.6 |
| 20260507075824 | 53 | 340 | 0.0 | 0.0 | 0.00 | 0.00 | 0.00 | 85 | 1021.6 |
| 20260507075325 | 53 | 327 | 0.0 | 0.0 | 0.00 | 0.00 | 0.00 | 85 | 1021.6 |
| 20260507074814 | 53 | 308 | 0.0 | 0.0 | 0.00 | 0.00 | 0.00 | 85 | 1021.6 |
| 20260507074313 | 53 | 309 | 0.0 | 1.7 | 0.00 | 0.00 | 0.00 | 85 | 1021.6 |
| 20260507073816 | 53 | 1 | 0.0 | 1.7 | 0.00 | 0.00 | 0.00 | 84 | 1021.6 |
| 20260507073322 | 53 | 314 | 0.0 | 0.9 | 0.00 | 0.00 | 0.00 | 84 | 1021.6 |
| 20260507072824 | 53 | 356 | 0.0 | 0.0 | 0.00 | 0.00 | 0.00 | 84 | 1021.6 |
| 20260507072331 | 53 | 315 | 0.0 | 3.5 | 0.00 | 0.00 | 0.00 | 83 | 1021.6 |
| 20260507071813 | 53 | 331 | 0.0 | 3.5 | 0.00 | 0.00 | 0.00 | 83 | 1021.6 |
| 20260507071313 | 53 | 326 | 0.0 | 2.6 | 0.00 | 0.00 | 0.00 | 84 | 1021.5 |
| 20260507070822 | 53 | 340 | 0.9 | 2.6 | 0.00 | 0.00 | 0.00 | 84 | 1021.5 |
| 20260507070320 | 53 | 340 | 0.0 | 0.0 | 0.00 | 0.00 | 0.00 | 84 | 1021.4 |
| 20260507065823 | 53 | 323 | 0.0 | 0.0 | 0.00 | 0.00 | 0.00 | 85 | 1021.4 |
| 20260507065329 | 53 | 323 | 0.0 | 0.0 | 0.00 | 0.00 | 0.00 | 85 | 1021.5 |
| 20260507064831 | 53 | 323 | 0.0 | 0.0 | 0.00 | 0.00 | 0.00 | 85 | 1021.5 |
| 20260507064338 | 53 | 354 | 0.0 | 3.5 | 0.00 | 0.00 | 0.00 | 85 | 1021.4 |
| 20260507063820 | 53 | 344 | 0.9 | 5.2 | 0.00 | 0.00 | 0.00 | 85 | 1021.5 |
| 20260507063320 | 53 | 355 | 0.9 | 5.2 | 0.00 | 0.00 | 0.00 | 85 | 1021.5 |
| 20260507062831 | 53 | 342 | 0.9 | 4.3 | 0.00 | 0.00 | 0.00 | 85 | 1021.5 |
| 20260507062329 | 53 | 322 | 1.7 | 6.1 | 0.00 | 0.00 | 0.00 | 86 | 1021.5 |
| 20260507061832 | 53 | 325 | 2.6 | 6.1 | 0.00 | 0.00 | 0.00 | 86 | 1021.6 |
| 20260507061338 | 53 | 351 | 0.0 | 2.6 | 0.00 | 0.00 | 0.00 | 87 | 1021.6 |
| 20260507060820 | 53 | 332 | 0.9 | 4.3 | 0.00 | 0.00 | 0.00 | 87 | 1021.6 |
| 20260507060320 | 53 | 356 | 0.0 | 4.3 | 0.00 | 0.00 | 0.00 | 87 | 1021.5 |
| 20260507055823 | 53 | 333 | 0.0 | 3.5 | 0.00 | 0.00 | 0.00 | 87 | 1021.5 |
| 20260507055322 | 53 | 354 | 0.0 | 2.6 | 0.00 | 0.00 | 0.00 | 87 | 1021.6 |
| 20260507054832 | 53 | 314 | 0.0 | 0.0 | 0.00 | 0.00 | 0.00 | 87 | 1021.5 |
| 20260507054331 | 53 | 321 | 0.0 | 2.6 | 0.00 | 0.00 | 0.00 | 87 | 1021.4 |
| 20260507053814 | 53 | 30 | 0.0 | 4.3 | 0.00 | 0.00 | 0.00 | 87 | 1021.5 |
| 20260507053313 | 53 | 355 | 0.9 | 4.3 | 0.00 | 0.00 | 0.00 | 87 | 1021.5 |
| 20260507052823 | 53 | 342 | 0.0 | 2.6 | 0.00 | 0.00 | 0.00 | 87 | 1021.5 |
| 20260507052322 | 54 | 312 | 0.9 | 2.6 | 0.00 | 0.00 | 0.00 | 87 | 1021.4 |
| 20260507051831 | 54 | 334 | 0.0 | 3.5 | 0.00 | 0.00 | 0.00 | 86 | 1021.4 |
| 20260507050821 | 54 | 330 | 0.9 | 4.3 | 0.00 | 0.00 | 0.00 | 86 | 1021.4 |
| 20260507050320 | 54 | 39 | 0.0 | 3.5 | 0.00 | 0.00 | 0.00 | 85 | 1021.5 |
| 20260507045830 | 54 | 336 | 0.9 | 3.5 | 0.00 | 0.00 | 0.00 | 85 | 1021.5 |
| 20260507045357 | 54 | 267 | 0.0 | 0.9 | 0.00 | 0.00 | 0.00 | 85 | 1021.5 |
| 20260507045000 | 55 | 298 | 0.0 | 5.2 | 0.00 | 0.00 | 0.00 | 85 | 1021.5 |
| 20260507044333 | 55 | 334 | 0.9 | 5.2 | 0.00 | 0.00 | 0.00 | 85 | 1021.5 |
| 20260507043842 | 55 | 329 | 0.9 | 7.0 | 0.00 | 0.00 | 0.00 | 85 | 1021.5 |
| 20260507043342 | 55 | 304 | 1.7 | 7.0 | 0.00 | 0.00 | 0.00 | 84 | 1021.4 |
| 20260507042852 | 55 | 329 | 1.7 | 6.1 | 0.00 | 0.00 | 0.00 | 84 | 1021.4 |
| 20260507042338 | 55 | 14 | 0.9 | 6.1 | 0.00 | 0.00 | 0.00 | 84 | 1021.3 |
| 20260507041840 | 55 | 336 | 2.6 | 6.1 | 0.00 | 0.00 | 0.00 | 84 | 1021.4 |
| 20260507041347 | 55 | 332 | 0.9 | 4.3 | 0.00 | 0.00 | 0.00 | 84 | 1021.3 |
| 20260507040836 | 56 | 338 | 0.0 | 4.3 | 0.00 | 0.00 | 0.00 | 84 | 1021.2 |
| 20260507040335 | 56 | 31 | 0.9 | 9.6 | 0.00 | 0.00 | 0.00 | 84 | 1021.2 |
| 20260507035840 | 56 | 32 | 0.9 | 9.6 | 0.00 | 0.00 | 0.00 | 83 | 1021.1 |
| 20260507035346 | 56 | 18 | 1.7 | 5.2 | 0.00 | 0.00 | 0.00 | 83 | 1021.0 |
| 20260507034856 | 56 | 313 | 0.0 | 5.2 | 0.00 | 0.00 | 0.00 | 83 | 1021.0 |
| 20260507034335 | 56 | 37 | 0.0 | 8.7 | 0.00 | 0.00 | 0.00 | 83 | 1020.9 |
| 20260507033845 | 57 | 332 | 0.9 | 8.7 | 0.00 | 0.00 | 0.00 | 83 | 1020.9 |
| 20260507033351 | 57 | 350 | 0.0 | 5.2 | 0.00 | 0.00 | 0.00 | 83 | 1020.8 |
| 20260507032813 | 57 | 321 | 0.0 | 5.2 | 0.00 | 0.00 | 0.00 | 83 | 1020.8 |
| 20260507032312 | 57 | 310 | 0.0 | 7.0 | 0.00 | 0.00 | 0.00 | 83 | 1020.7 |
| 20260507031822 | 57 | 310 | 0.0 | 7.0 | 0.00 | 0.00 | 0.00 | 83 | 1020.6 |
| 20260507031321 | 57 | 318 | 0.9 | 6.1 | 0.00 | 0.00 | 0.00 | 82 | 1020.6 |
| 20260507030830 | 58 | 349 | 0.0 | 6.1 | 0.00 | 0.00 | 0.00 | 82 | 1020.5 |
| 20260507030337 | 58 | 354 | 0.0 | 2.6 | 0.00 | 0.00 | 0.00 | 82 | 1020.4 |
| 20260507025820 | 58 | 333 | 0.0 | 4.3 | 0.00 | 0.00 | 0.00 | 81 | 1020.4 |
| 20260507025327 | 58 | 18 | 1.7 | 4.3 | 0.00 | 0.00 | 0.00 | 81 | 1020.4 |
| 20260507024836 | 59 | 337 | 0.0 | 5.2 | 0.00 | 0.00 | 0.00 | 81 | 1020.4 |
| 20260507024315 | 59 | 323 | 2.6 | 5.2 | 0.00 | 0.00 | 0.00 | 80 | 1020.3 |
| 20260507023818 | 59 | 341 | 0.0 | 1.7 | 0.00 | 0.00 | 0.00 | 80 | 1020.2 |
| 20260507023324 | 59 | 56 | 0.0 | 0.0 | 0.00 | 0.00 | 0.00 | 80 | 1020.2 |
| 20260507022827 | 59 | 131 | 0.0 | 0.0 | 0.00 | 0.00 | 0.00 | 80 | 1020.1 |
| 20260507022327 | 60 | 321 | 0.0 | 0.9 | 0.00 | 0.00 | 0.00 | 79 | 1020.2 |
| 20260507021837 | 60 | 111 | 0.0 | 0.9 | 0.00 | 0.00 | 0.00 | 79 | 1020.2 |
| 20260507021316 | 60 | 113 | 0.0 | 0.0 | 0.00 | 0.00 | 0.00 | 77 | 1020.1 |
| 20260507020825 | 61 | 347 | 0.0 | 0.9 | 0.00 | 0.00 | 0.00 | 77 | 1020.1 |
| 20260507020324 | 61 | 353 | 0.0 | 0.9 | 0.00 | 0.00 | 0.00 | 77 | 1020.1 |
| 20260507015813 | 61 | 70 | 0.0 | 1.7 | 0.00 | 0.00 | 0.00 | 76 | 1020.2 |
| 20260507015318 | 61 | 60 | 0.0 | 1.7 | 0.00 | 0.00 | 0.00 | 76 | 1020.2 |
| 20260507014820 | 62 | 336 | 0.0 | 1.7 | 0.00 | 0.00 | 0.00 | 75 | 1020.3 |
| 20260507014326 | 62 | 46 | 0.0 | 2.6 | 0.00 | 0.00 | 0.00 | 75 | 1020.3 |
| 20260507013815 | 62 | 288 | 0.0 | 2.6 | 0.00 | 0.00 | 0.00 | 75 | 1020.4 |
| 20260507013313 | 62 | 32 | 0.0 | 9.6 | 0.00 | 0.00 | 0.00 | 75 | 1020.4 |
| 20260507012843 | 63 | 341 | 0.9 | 9.6 | 0.00 | 0.00 | 0.00 | 74 | 1020.3 |
| 20260507012328 | 63 | 44 | 0.9 | 7.0 | 0.00 | 0.00 | 0.00 | 73 | 1020.3 |
| 20260507011316 | 64 | 44 | 0.0 | 5.2 | 0.00 | 0.00 | 0.00 | 74 | 1020.2 |
| 20260507010818 | 64 | 32 | 0.9 | 5.2 | 0.00 | 0.00 | 0.00 | 73 | 1020.2 |
| 20260507010325 | 64 | 50 | 0.0 | 4.3 | 0.00 | 0.00 | 0.00 | 74 | 1020.2 |
| 20260507005827 | 64 | 353 | 0.0 | 4.3 | 0.00 | 0.00 | 0.00 | 74 | 1020.2 |
| 20260507005313 | 64 | 113 | 0.0 | 4.3 | 0.00 | 0.00 | 0.00 | 74 | 1020.2 |
| 20260507004823 | 64 | 74 | 0.0 | 7.0 | 0.00 | 0.00 | 0.00 | 75 | 1020.2 |
| 20260507004350 | 64 | 6 | 0.0 | 7.0 | 0.00 | 0.00 | 0.00 | 75 | 1020.2 |
| 20260507003852 | 64 | 342 | 2.6 | 5.2 | 0.00 | 0.00 | 0.00 | 74 | 1020.1 |
| 20260507003338 | 64 | 316 | 0.9 | 5.2 | 0.00 | 0.00 | 0.00 | 74 | 1020.1 |
| 20260507002846 | 65 | 342 | 0.0 | 4.3 | 0.00 | 0.00 | 0.00 | 74 | 1020.1 |
| 20260507002344 | 65 | 127 | 0.0 | 4.3 | 0.00 | 0.00 | 0.00 | 74 | 1020.1 |
| 20260507001853 | 65 | 39 | 0.0 | 3.5 | 0.00 | 0.00 | 0.00 | 74 | 1020.0 |
| 20260507001339 | 66 | 40 | 0.0 | 2.6 | 0.00 | 0.00 | 0.00 | 73 | 1020.1 |
| 20260507000840 | 66 | 346 | 0.9 | 2.6 | 0.00 | 0.00 | 0.00 | 72 | 1020.1 |
| 20260507000352 | 66 | 1 | 0.0 | 0.0 | 0.00 | 0.00 | 0.00 | 72 | 1020.1 |
| 20260506235813 | 66 | 39 | 0.0 | 0.0 | 0.00 | 0.00 | 0.00 | 72 | 1020.1 |
| 20260506235320 | 66 | 37 | 0.0 | 0.0 | 0.00 | 0.00 | 0.00 | 73 | 1020.1 |
| 20260506234822 | 66 | 52 | 0.0 | 0.0 | 0.00 | 0.00 | 0.00 | 73 | 1020.1 |
| 20260506234321 | 66 | 337 | 0.0 | 0.0 | 0.00 | 0.00 | 0.00 | 73 | 1020.1 |
| 20260506233858 | 65 | 114 | 0.0 | 0.0 | 0.00 | 0.00 | 0.00 | 73 | 1020.1 |
| 20260506233319 | 65 | 50 | 0.0 | 0.0 | 0.00 | 0.00 | 0.00 | 72 | 1020.1 |
| 20260506232822 | 65 | 47 | 0.0 | 4.3 | 0.00 | 0.00 | 0.00 | 72 | 1020.1 |
| 20260506232321 | 65 | 144 | 0.9 | 4.3 | 0.00 | 0.00 | 0.00 | 73 | 1020.1 |
| 20260506231830 | 66 | 142 | 0.9 | 3.5 | 0.00 | 0.00 | 0.00 | 72 | 1020.1 |
| 20260506231330 | 66 | 60 | 0.0 | 6.1 | 0.00 | 0.00 | 0.00 | 71 | 1020.1 |
| 20260506230839 | 66 | 128 | 0.0 | 2.6 | 0.00 | 0.00 | 0.00 | 71 | 1020.2 |
| 20260506230317 | 66 | 140 | 0.0 | 0.0 | 0.00 | 0.00 | 0.00 | 71 | 1020.3 |
| 20260506225820 | 66 | 34 | 0.0 | 0.9 | 0.00 | 0.00 | 0.00 | 70 | 1020.4 |
| 20260506225326 | 66 | 328 | 0.0 | 0.9 | 0.00 | 0.00 | 0.00 | 69 | 1020.4 |
| 20260506224829 | 66 | 126 | 0.0 | 3.5 | 0.00 | 0.00 | 0.00 | 72 | 1020.5 |
| 20260506224328 | 66 | 193 | 0.9 | 3.5 | 0.00 | 0.00 | 0.00 | 71 | 1020.5 |
| 20260506223838 | 66 | 93 | 0.9 | 1.7 | 0.00 | 0.00 | 0.00 | 70 | 1020.5 |
| 20260506223317 | 66 | 172 | 0.0 | 0.0 | 0.00 | 0.00 | 0.00 | 71 | 1020.6 |
| 20260506222819 | 67 | 43 | 0.0 | 3.5 | 0.00 | 0.00 | 0.00 | 70 | 1020.6 |
| 20260506222333 | 67 | 207 | 0.9 | 4.3 | 0.00 | 0.00 | 0.00 | 70 | 1020.6 |
| 20260506221815 | 67 | 230 | 0.0 | 2.6 | 0.00 | 0.00 | 0.00 | 71 | 1020.6 |
| 20260506221315 | 67 | 135 | 0.0 | 0.0 | 0.00 | 0.00 | 0.00 | 70 | 1020.7 |
| 20260506220824 | 66 | 6 | 0.0 | 2.6 | 0.00 | 0.00 | 0.00 | 71 | 1020.8 |
| 20260506220330 | 66 | 356 | 0.0 | 2.6 | 0.00 | 0.00 | 0.00 | 68 | 1020.8 |
| 20260506215813 | 67 | 248 | 0.0 | 2.6 | 0.00 | 0.00 | 0.00 | 68 | 1020.7 |
| 20260506215321 | 67 | 318 | 0.0 | 2.6 | 0.00 | 0.00 | 0.00 | 69 | 1020.7 |
| 20260506214823 | 67 | 179 | 0.0 | 3.5 | 0.00 | 0.00 | 0.00 | 68 | 1020.6 |
| 20260506214322 | 66 | 269 | 0.0 | 4.3 | 0.00 | 0.00 | 0.00 | 69 | 1020.6 |
| 20260506213831 | 67 | 316 | 0.0 | 3.5 | 0.00 | 0.00 | 0.00 | 68 | 1020.6 |
| 20260506213331 | 67 | 148 | 0.0 | 3.5 | 0.00 | 0.00 | 0.00 | 69 | 1020.6 |
| 20260506212813 | 67 | 213 | 0.0 | 0.0 | 0.00 | 0.00 | 0.00 | 70 | 1020.8 |
| 20260506212319 | 66 | 210 | 0.0 | 3.5 | 0.00 | 0.00 | 0.00 | 71 | 1020.8 |
| 20260506211822 | 66 | 243 | 0.0 | 4.3 | 0.00 | 0.00 | 0.00 | 72 | 1020.9 |
| 20260506211321 | 66 | 129 | 0.9 | 4.3 | 0.00 | 0.00 | 0.00 | 71 | 1020.9 |
| 20260506210831 | 66 | 181 | 0.0 | 0.0 | 0.00 | 0.00 | 0.00 | 72 | 1021.0 |
| 20260506210328 | 65 | 131 | 0.0 | 2.6 | 0.00 | 0.00 | 0.00 | 75 | 1021.0 |
| 20260506205837 | 64 | 101 | 0.9 | 2.6 | 0.00 | 0.00 | 0.00 | 74 | 1021.1 |
| 20260506205317 | 64 | 60 | 0.0 | 0.0 | 0.00 | 0.00 | 0.00 | 76 | 1021.0 |
| 20260506204819 | 63 | 109 | 0.0 | 3.5 | 0.00 | 0.00 | 0.00 | 76 | 1021.0 |
| 20260506204325 | 64 | 240 | 0.9 | 4.3 | 0.00 | 0.00 | 0.00 | 76 | 1021.1 |
| 20260506203828 | 63 | 209 | 0.9 | 4.3 | 0.00 | 0.00 | 0.00 | 76 | 1021.0 |
| 20260506203327 | 64 | 156 | 0.9 | 4.3 | 0.00 | 0.00 | 0.00 | 77 | 1021.0 |
| 20260506202817 | 63 | 136 | 0.0 | 0.0 | 0.00 | 0.00 | 0.00 | 79 | 1021.0 |
| 20260506202316 | 63 | 145 | 0.0 | 4.3 | 0.00 | 0.00 | 0.00 | 78 | 1020.9 |
| 20260506201818 | 63 | 205 | 0.9 | 4.3 | 0.00 | 0.00 | 0.00 | 77 | 1020.9 |
| 20260506201325 | 62 | 206 | 0.0 | 2.6 | 0.00 | 0.00 | 0.00 | 78 | 1021.0 |
| 20260506200827 | 62 | 138 | 0.0 | 2.6 | 0.00 | 0.00 | 0.00 | 79 | 1021.0 |
| 20260506200334 | 62 | 46 | 0.0 | 1.7 | 0.00 | 0.00 | 0.00 | 79 | 1021.0 |
| 20260506195816 | 62 | 8 | 0.0 | 0.0 | 0.00 | 0.00 | 0.00 | 79 | 1021.1 |
| 20260506195315 | 62 | 105 | 0.0 | 1.7 | 0.00 | 0.00 | 0.00 | 80 | 1021.3 |
| 20260506194825 | 61 | 77 | 0.0 | 1.7 | 0.00 | 0.00 | 0.00 | 80 | 1021.3 |
| 20260506194324 | 61 | 180 | 0.0 | 0.0 | 0.00 | 0.00 | 0.00 | 80 | 1021.4 |
| 20260506193854 | 62 | 352 | 0.0 | 0.0 | 0.00 | 0.00 | 0.00 | 79 | 1021.4 |
| 20260506193334 | 61 | 113 | 0.0 | 0.0 | 0.00 | 0.00 | 0.00 | 81 | 1021.3 |
| 20260506192842 | 61 | 166 | 0.0 | 2.6 | 0.00 | 0.00 | 0.00 | 81 | 1021.4 |
| 20260506192348 | 61 | 152 | 0.9 | 2.6 | 0.00 | 0.00 | 0.00 | 79 | 1021.4 |
| 20260506191849 | 62 | 358 | 0.0 | 4.3 | 0.00 | 0.00 | 0.00 | 78 | 1021.3 |
| 20260506191335 | 61 | 116 | 0.9 | 4.3 | 0.00 | 0.00 | 0.00 | 79 | 1021.2 |
| 20260506190843 | 61 | 4 | 0.0 | 1.7 | 0.00 | 0.00 | 0.00 | 79 | 1021.2 |
| 20260506190341 | 60 | 344 | 0.0 | 0.9 | 0.00 | 0.00 | 0.00 | 81 | 1021.2 |
| 20260506185830 | 60 | 132 | 0.0 | 0.9 | 0.00 | 0.00 | 0.00 | 81 | 1021.3 |
| 20260506185329 | 61 | 308 | 0.0 | 2.6 | 0.00 | 0.00 | 0.00 | 80 | 1021.3 |
| 20260506184839 | 61 | 293 | 0.0 | 2.6 | 0.00 | 0.00 | 0.00 | 81 | 1021.2 |
| 20260506184318 | 60 | 302 | 0.0 | 2.6 | 0.00 | 0.00 | 0.00 | 81 | 1021.1 |
| 20260506183820 | 60 | 156 | 0.0 | 2.6 | 0.00 | 0.00 | 0.00 | 81 | 1021.2 |
| 20260506183326 | 60 | 332 | 0.0 | 2.6 | 0.00 | 0.00 | 0.00 | 81 | 1021.1 |
| 20260506182829 | 60 | 319 | 0.0 | 0.0 | 0.00 | 0.00 | 0.00 | 82 | 1021.1 |
| 20260506182328 | 60 | 314 | 0.0 | 0.0 | 0.00 | 0.00 | 0.00 | 83 | 1021.2 |
| 20260506181838 | 59 | 354 | 0.0 | 0.9 | 0.00 | 0.00 | 0.00 | 83 | 1021.2 |
| 20260506181318 | 59 | 44 | 0.0 | 1.7 | 0.00 | 0.00 | 0.00 | 84 | 1021.2 |
| 20260506180820 | 58 | 255 | 0.0 | 2.6 | 0.00 | 0.00 | 0.00 | 84 | 1021.2 |
| 20260506180326 | 58 | 289 | 0.0 | 2.6 | 0.00 | 0.00 | 0.00 | 86 | 1021.2 |
| 20260506175828 | 58 | 301 | 0.0 | 0.0 | 0.00 | 0.00 | 0.00 | 86 | 1021.2 |
| 20260506175335 | 58 | 297 | 0.0 | 1.7 | 0.00 | 0.00 | 0.00 | 86 | 1021.2 |
| 20260506174818 | 58 | 209 | 0.0 | 1.7 | 0.00 | 0.00 | 0.00 | 87 | 1021.3 |
| 20260506174316 | 57 | 176 | 0.0 | 0.0 | 0.00 | 0.00 | 0.00 | 88 | 1021.2 |
| 20260506173818 | 57 | 194 | 0.0 | 0.0 | 0.00 | 0.00 | 0.00 | 89 | 1021.2 |
| 20260506173325 | 57 | 207 | 0.0 | 2.6 | 0.00 | 0.00 | 0.00 | 90 | 1021.1 |
| 20260506172833 | 56 | 113 | 0.0 | 2.6 | 0.00 | 0.00 | 0.00 | 89 | 1021.0 |
| 20260506172312 | 56 | 143 | 0.9 | 2.6 | 0.00 | 0.00 | 0.00 | 89 | 1020.9 |
| 20260506171820 | 56 | 115 | 0.0 | 0.0 | 0.00 | 0.00 | 0.00 | 90 | 1020.9 |
| 20260506171325 | 56 | 253 | 0.0 | 0.9 | 0.00 | 0.00 | 0.00 | 90 | 1021.0 |
| 20260506170827 | 56 | 186 | 0.0 | 0.9 | 0.00 | 0.00 | 0.00 | 90 | 1020.9 |
| 20260506170312 | 56 | 306 | 0.0 | 0.0 | 0.00 | 0.00 | 0.00 | 90 | 1021.0 |
| 20260506165821 | 56 | 306 | 0.0 | 0.0 | 0.00 | 0.00 | 0.00 | 91 | 1021.0 |
| 20260506165322 | 56 | 306 | 0.0 | 0.0 | 0.00 | 0.00 | 0.00 | 90 | 1021.2 |
| 20260506164832 | 56 | 97 | 0.0 | 0.0 | 0.00 | 0.00 | 0.00 | 91 | 1021.1 |
| 20260506164315 | 55 | 97 | 0.0 | 0.0 | 0.00 | 0.00 | 0.00 | 91 | 1021.0 |
| 20260506163818 | 55 | 131 | 0.0 | 0.0 | 0.00 | 0.00 | 0.00 | 91 | 1021.0 |
| 20260506163324 | 55 | 144 | 0.0 | 0.0 | 0.00 | 0.00 | 0.00 | 91 | 1020.9 |
| 20260506162814 | 55 | 34 | 0.0 | 0.0 | 0.00 | 0.00 | 0.00 | 91 | 1021.0 |
| 20260506161838 | 55 | 96 | 0.0 | 1.7 | 0.00 | 0.00 | 0.00 | 91 | 1020.8 |
| 20260506161318 | 55 | 144 | 0.0 | 2.6 | 0.00 | 0.00 | 0.00 | 91 | 1020.8 |
| 20260506160821 | 55 | 99 | 0.0 | 1.7 | 0.00 | 0.00 | 0.00 | 91 | 1020.8 |
| 20260506160320 | 55 | 236 | 0.0 | 0.9 | 0.00 | 0.00 | 0.00 | 91 | 1020.8 |
| 20260506155828 | 55 | 123 | 0.0 | 1.7 | 0.00 | 0.00 | 0.00 | 91 | 1020.5 |
| 20260506155327 | 55 | 100 | 0.0 | 1.7 | 0.00 | 0.00 | 0.00 | 91 | 1020.5 |
| 20260506154836 | 55 | 343 | 0.0 | 0.9 | 0.00 | 0.00 | 0.00 | 91 | 1020.6 |
| 20260506154316 | 55 | 139 | 0.0 | 4.3 | 0.00 | 0.00 | 0.00 | 91 | 1020.1 |
| 20260506153819 | 54 | 100 | 1.7 | 4.3 | 0.00 | 0.00 | 0.00 | 91 | 1020.0 |
| 20260506153324 | 55 | 143 | 0.0 | 1.7 | 0.00 | 0.00 | 0.00 | 91 | 1020.3 |
| 20260506152827 | 54 | 128 | 0.0 | 1.7 | 0.00 | 0.00 | 0.00 | 91 | 1020.6 |
| 20260506152326 | 55 | 79 | 0.0 | 0.0 | 0.00 | 0.00 | 0.00 | 91 | 1020.9 |
| 20260506151816 | 55 | 79 | 0.0 | 0.0 | 0.00 | 0.00 | 0.00 | 91 | 1020.9 |
| 20260506151315 | 55 | 79 | 0.0 | 0.0 | 0.00 | 0.00 | 0.00 | 91 | 1021.0 |
| 20260506150817 | 55 | 123 | 0.0 | 0.0 | 0.00 | 0.00 | 0.00 | 91 | 1021.0 |
| 20260506150321 | 55 | 123 | 0.0 | 0.0 | 0.00 | 0.00 | 0.00 | 91 | 1021.0 |
| 20260506145823 | 55 | 153 | 0.0 | 0.0 | 0.00 | 0.00 | 0.00 | 91 | 1020.9 |
| 20260506145330 | 55 | 2 | 0.0 | 0.0 | 0.00 | 0.00 | 0.00 | 91 | 1021.0 |
| 20260506144832 | 55 | 131 | 0.0 | 0.0 | 0.00 | 0.00 | 0.00 | 91 | 1020.8 |
| 20260506144332 | 55 | 112 | 0.0 | 0.0 | 0.00 | 0.00 | 0.00 | 92 | 1020.6 |
| 20260506143821 | 55 | 334 | 0.0 | 0.0 | 0.00 | 0.00 | 0.00 | 91 | 1020.8 |
| 20260506143327 | 55 | 329 | 0.0 | 0.0 | 0.00 | 0.00 | 0.00 | 91 | 1020.7 |
| 20260506142829 | 55 | 35 | 0.0 | 0.0 | 0.00 | 0.00 | 0.00 | 91 | 1020.5 |
| 20260506142337 | 55 | 61 | 0.0 | 0.0 | 0.00 | 0.00 | 0.00 | 91 | 1020.3 |
| 20260506141819 | 54 | 107 | 0.0 | 4.3 | 0.00 | 0.00 | 0.00 | 92 | 1020.2 |
| 20260506141318 | 54 | 90 | 0.9 | 4.3 | 0.00 | 0.00 | 0.00 | 91 | 1019.9 |
| 20260506140828 | 54 | 86 | 0.0 | 3.5 | 0.00 | 0.00 | 0.00 | 92 | 1019.9 |
| 20260506140327 | 54 | 154 | 0.0 | 3.5 | 0.00 | 0.00 | 0.00 | 92 | 1020.0 |
| 20260506135830 | 54 | 136 | 0.0 | 0.0 | 0.00 | 0.00 | 0.00 | 92 | 1019.9 |
| 20260506135316 | 54 | 131 | 0.0 | 0.0 | 0.00 | 0.00 | 0.00 | 92 | 1020.0 |
| 20260506134819 | 54 | 129 | 0.0 | 0.0 | 0.00 | 0.00 | 0.00 | 92 | 1019.9 |
| 20260506134318 | 54 | 129 | 0.0 | 0.0 | 0.00 | 0.00 | 0.00 | 92 | 1019.8 |
| 20260506133828 | 54 | 129 | 0.0 | 0.0 | 0.00 | 0.00 | 0.00 | 92 | 1019.8 |
| 20260506133326 | 54 | 129 | 0.0 | 0.0 | 0.00 | 0.00 | 0.00 | 92 | 1019.8 |
| 20260506132836 | 54 | 136 | 0.0 | 0.9 | 0.00 | 0.00 | 0.00 | 92 | 1019.8 |
| 20260506132315 | 54 | 120 | 0.0 | 0.9 | 0.00 | 0.00 | 0.00 | 92 | 1019.8 |
| 20260506131817 | 54 | 115 | 0.0 | 0.0 | 0.00 | 0.00 | 0.00 | 92 | 1019.7 |
| 20260506131324 | 54 | 139 | 0.0 | 0.9 | 0.00 | 0.00 | 0.00 | 92 | 1019.6 |
| 20260506130824 | 54 | 93 | 0.0 | 0.9 | 0.00 | 0.00 | 0.00 | 91 | 1019.5 |
| 20260506130324 | 54 | 142 | 0.0 | 0.0 | 0.00 | 0.00 | 0.00 | 91 | 1019.4 |
| 20260506125833 | 54 | 126 | 0.0 | 0.0 | 0.00 | 0.00 | 0.00 | 91 | 1019.6 |
| 20260506125313 | 54 | 125 | 0.0 | 0.0 | 0.00 | 0.00 | 0.00 | 91 | 1019.5 |
| 20260506124815 | 54 | 153 | 0.0 | 0.9 | 0.00 | 0.00 | 0.00 | 91 | 1019.5 |
| 20260506124322 | 54 | 102 | 0.0 | 0.9 | 0.00 | 0.00 | 0.00 | 91 | 1019.4 |
| 20260506123825 | 55 | 94 | 0.0 | 0.0 | 0.00 | 0.00 | 0.00 | 91 | 1019.3 |
| 20260506123333 | 55 | 127 | 0.0 | 0.0 | 0.00 | 0.00 | 0.00 | 91 | 1019.3 |
| 20260506122813 | 55 | 139 | 0.0 | 0.0 | 0.00 | 0.00 | 0.00 | 91 | 1019.4 |
| 20260506122319 | 55 | 131 | 0.0 | 0.9 | 0.00 | 0.00 | 0.00 | 91 | 1019.4 |
| 20260506121822 | 55 | 120 | 0.0 | 0.9 | 0.00 | 0.00 | 0.00 | 91 | 1019.5 |
| 20260506120818 | 55 | 110 | 0.0 | 0.0 | 0.00 | 0.00 | 0.00 | 91 | 1019.4 |
| 20260506120318 | 55 | 134 | 0.0 | 0.0 | 0.00 | 0.00 | 0.00 | 90 | 1019.3 |
| 20260506115828 | 55 | 138 | 0.0 | 0.0 | 0.00 | 0.00 | 0.00 | 90 | 1019.4 |
| 20260506115327 | 55 | 138 | 0.0 | 0.0 | 0.00 | 0.00 | 0.00 | 90 | 1019.3 |
| 20260506114837 | 55 | 136 | 0.0 | 0.0 | 0.00 | 0.00 | 0.00 | 90 | 1019.3 |
| 20260506114314 | 55 | 136 | 0.0 | 0.0 | 0.00 | 0.00 | 0.00 | 90 | 1019.1 |
| 20260506113817 | 55 | 136 | 0.0 | 0.0 | 0.00 | 0.00 | 0.00 | 90 | 1019.1 |
| 20260506113316 | 55 | 136 | 0.0 | 0.0 | 0.00 | 0.00 | 0.00 | 90 | 1019.0 |
| 20260506112826 | 55 | 136 | 0.0 | 0.0 | 0.00 | 0.00 | 0.00 | 90 | 1019.0 |
| 20260506112325 | 55 | 115 | 0.0 | 0.0 | 0.00 | 0.00 | 0.00 | 90 | 1019.0 |
| 20260506111835 | 55 | 113 | 0.0 | 0.0 | 0.00 | 0.00 | 0.00 | 90 | 1019.1 |
| 20260506111318 | 55 | 113 | 0.0 | 0.0 | 0.00 | 0.00 | 0.00 | 90 | 1019.0 |
| 20260506110819 | 55 | 113 | 0.0 | 0.0 | 0.00 | 0.00 | 0.00 | 90 | 1018.9 |
| 20260506110334 | 55 | 142 | 0.0 | 0.0 | 0.00 | 0.00 | 0.00 | 90 | 1018.8 |
| 20260506105859 | 55 | 111 | 0.0 | 0.0 | 0.00 | 0.00 | 0.00 | 90 | 1018.7 |